Weather in Topki

Russia / Lipetsk Oblast     53°20′11″N   39°35′42″E
temp.,
°C
wind,
m/s
gust,
m/s
humid.,
%
clouds,
%
prec.,
mm/h
press.,
hPa
HPBL,
m
17 may, mon
mon1700:00+16ne4783100 0.4 1012102
03:00+15ene499577 0.8 1012177
06:00+16e48905 0.0 1012172
09:00+21ese57695 0.0 1012325
12:00+25se695135 0.0 1012943
15:00+26se61049100 0.0 10111545
18:00+23se61264100 0.0 1010472
21:00+18ese4148154 0.0 1010285
18 may, tue
tue1800:00+17ese515690 0.0 1010311
03:00+15ese4137050 0.0 1010253
06:00+15ese51272100 0.0 1010231
09:00+20se6125812 0.0 1010413
12:00+25se694319 0.0 1009788
15:00+26ese71149100 0.0 10081494
18:00+23se7146341 0.0 1007656
21:00+18ese4127999 0.0 1008249
19 may, wed
wed1900:00+17sse4107599 0.0 1008222
03:00+15nnw008968 0.0 100811
06:00+16e238698 0.0 100878
09:00+19sse2374100 0.0 1008498
12:00+23se3562100 0.0 10081104
15:00+24se595497 0.0 10081741
18:00+22se487149 0.9 1008376
21:00+18e347927 0.9 100747
20 may, thu
thu2000:00+17se239298 1.3 100754
03:00+15se229753 1.3 100726
06:00+15s249699 0.4 1006210
09:00+16s699070 1.5 1008681
12:00+17ssw797147 0.7 10101194
15:00+19ssw68605 0.9 10111458
18:00+18s46720 0.1 1012989
21:00+14s49903 0.3 1013230
21 may, fri
fri2100:00+13sw410942 0.0 1015304
03:00+11sw31095100 0.0 1017229
06:00+12sw379188 0.0 1018224
09:00+15ssw577987 0.0 1019398
12:00+17ssw357585 0.0 1020470
15:00+20ssw346472 0.7 10191053
18:00+20sse357126 1.6 1019489
21:00+16sse358447 1.8 101981